| time (UTC) | temp F | wind direction | speed MPH | gust MPH | rain 1hr in | rain 24hr in | rain mn in | humidity % | barometer mb |
| 20260506060210 | 46 | 360 | 0.0 | 0.0 | 0.00 | 0.00 | 0.06 | 96 | |
| 20260506050211 | 45 | 360 | 0.0 | 0.0 | 0.00 | 0.00 | 0.06 | 95 | |
| 20260506043211 | 44 | 360 | 0.0 | 0.0 | 0.00 | 0.00 | 0.06 | 95 | |
| 20260506040211 | 44 | 360 | 0.0 | 0.0 | 0.00 | 0.00 | 0.06 | 93 | |
| 20260506033211 | 44 | 360 | 0.0 | 0.0 | 0.00 | 0.00 | 0.06 | 93 | |
| 20260506030212 | 44 | 360 | 0.0 | 0.0 | 0.00 | 0.00 | 0.06 | 93 | |
| 20260506023211 | 45 | 360 | 0.0 | 0.0 | 0.00 | 0.00 | 0.06 | 92 | |
| 20260506020212 | 45 | 360 | 0.0 | 0.0 | 0.00 | 0.00 | 0.06 | 91 | |
| 20260506013211 | 46 | 360 | 0.0 | 0.0 | 0.00 | 0.00 | 0.06 | 91 | |
| 20260506010213 | 47 | 360 | 0.0 | 0.0 | 0.00 | 0.00 | 0.06 | 92 | |
| 20260506003209 | 47 | 360 | 0.0 | 0.0 | 0.00 | 0.00 | 0.06 | 92 | |
| 20260506000211 | 47 | 360 | 0.0 | 0.0 | 0.00 | 0.00 | 0.06 | 93 | |
| 20260505233209 | 46 | 360 | 0.0 | 0.0 | 0.00 | 0.00 | 0.06 | 93 | |
| 20260505230209 | 47 | 360 | 0.0 | 0.0 | 0.00 | 0.00 | 0.06 | 92 | |
| 20260505223210 | 48 | 360 | 0.0 | 0.0 | 0.00 | 0.00 | 0.06 | 92 | |
| 20260505220209 | 49 | 360 | 0.0 | 0.0 | 0.00 | 0.00 | 0.00 | 92 | |
| 20260505213211 | 49 | 360 | 0.0 | 0.0 | 0.00 | 0.00 | 0.06 | 92 | |
| 20260505210215 | 50 | 360 | 0.0 | 0.0 | 0.00 | 0.00 | 0.06 | 92 | |
| 20260505203209 | 50 | 360 | 0.0 | 0.0 | 0.00 | 0.00 | 0.06 | 89 | |
| 20260505200210 | 51 | 360 | 0.0 | 0.0 | 0.00 | 0.00 | 0.06 | 88 | |
| 20260505193209 | 51 | 360 | 0.0 | 0.0 | 0.00 | 0.00 | 0.06 | 85 | |
| 20260505190215 | 52 | 360 | 0.0 | 0.0 | 0.00 | 0.00 | 0.06 | 83 | |
| 20260505183212 | 53 | 360 | 0.0 | 0.0 | 0.00 | 0.00 | 0.06 | 83 | |
| 20260505180211 | 54 | 360 | 0.0 | 0.0 | 0.00 | 0.00 | 0.06 | 83 | |
| 20260505173210 | 56 | 360 | 0.0 | 0.0 | 0.00 | 0.00 | 0.05 | 80 | |
| 20260505170210 | 58 | 360 | 0.0 | 0.0 | 0.00 | 0.00 | 0.05 | 77 | |
| 20260505163211 | 58 | 360 | 0.0 | 0.0 | 0.00 | 0.00 | 0.05 | 78 | |
| 20260505153210 | 59 | 53 | 0.0 | 0.0 | 0.00 | 0.00 | 0.05 | 71 | |
| 20260505150216 | 58 | 360 | 0.0 | 0.0 | 0.00 | 0.00 | 0.05 | 72 | |
| 20260505140210 | 56 | 360 | 0.0 | 0.0 | 0.00 | 0.00 | 0.05 | 76 | |
| 20260505130210 | 55 | 360 | 0.0 | 0.0 | 0.00 | 0.00 | 0.04 | 83 | |
| 20260505123210 | 56 | 360 | 0.0 | 0.0 | 0.00 | 0.00 | 0.03 | 82 | |
| 20260505120210 | 56 | 360 | 0.0 | 0.0 | 0.00 | 0.00 | 0.01 | 85 | |
| 20260505113210 | 56 | 360 | 1.0 | 0.0 | 0.00 | 0.00 | 0.00 | 82 | |
| 20260505110211 | 59 | 97 | 0.0 | 0.0 | 0.00 | 0.00 | 0.00 | 74 | |
| 20260505100212 | 58 | 360 | 0.0 | 0.0 | 0.00 | 0.00 | 0.00 | 71 | |
| 20260505093212 | 59 | 92 | 0.0 | 0.0 | 0.00 | 0.00 | 0.00 | 69 | |
| 20260505090212 | 59 | 339 | 0.0 | 0.0 | 0.00 | 0.00 | 0.00 | 69 | |
| 20260505083211 | 60 | 360 | 0.0 | 0.0 | 0.00 | 0.00 | 0.00 | 66 | |
| 20260505080210 | 61 | 97 | 0.0 | 0.0 | 0.00 | 0.00 | 0.00 | 66 | |
| 20260505073211 | 58 | 360 | 0.0 | 0.0 | 0.00 | 0.00 | 0.00 | 73 | |
| 20260505070212 | 57 | 360 | 0.0 | 0.0 | 0.00 | 0.00 | 0.00 | 74 |